Location: Franzen
(48.6167°N, 15.3833°E)
Time: 08:32:02
(UTC+00:00)

A-11 Canister half - Pass Details

Date: 05 August 2021
Orbit: 1515 x 1685 km, 47.2° (Epoch: 21 September)

Event Time Altitude Azimuth Distance (km) Brightness Sun altitude
Rises 21:32:52 0° 290° (WNW) 4,902 12.3 -21.6°
Reaches altitude 10° 21:36:25 10° 282° (WNW) 3,929 11.6 -21.8°
Maximum altitude 21:44:53 32° 224° (SW) 2,598 9.9 -22.3°
Enters shadow 21:48:15 26° 193° (SSW) 2,852 9.9 -22.5°
Drops below altitude 10° 21:53:24 10° 167° (SSE) 3,936 - -22.8°
Sets 21:56:59 0° 157° (SSE) 4,912 - -23.0°
